Cookies

Aceptar Utilizamos cookies propias y de terceros para mejorar nuestros servicios y mostrarle publicidad relacionada con sus preferencias mediante el análisis de sus hábitos de navegación. Si continua navegando, consideramos que acepta su uso. Puede cambiar la configuración u obtener más información aqui.





Formato DD/MM/YYYY
Formato DD/MM/YYYY

IMPORTANTE: Los filtros deben estar dentro de un mismo rango de fechas para los cuales existen datos:

  • Rango 1: de 01/04/2018 a 18/12/2018.

Datos

Fecha Temperatura Raw(ºC) Conductividad(mS/cm) Salinidad(psu) Oxígeno Disuelto(%) Oxígeno Disuelto(mg/l) Turbidez(NTU) Clorofila(ug/l)
03/11/2018 16:00 17,97 55210,00 36,66 8,1 106,70 2,1 4,32
03/11/2018 20:00 17,74 54880,00 36,41 8,2 107,30 2,0 4,34
04/11/2018 00:00 17,10 55440,00 36,82 8,0 103,80 1,9 5,03
04/11/2018 04:00 17,34 55230,00 36,67 8,1 105,00 2,4 4,45
04/11/2018 08:00 17,36 55220,00 36,66 8,0 103,80 1,9 4,01
04/11/2018 12:00 17,29 55430,00 36,81 7,8 101,60 2,2 3,92
04/11/2018 16:00 15,85 55450,00 36,80 7,7 97,70 2,3 4,66
04/11/2018 20:00 16,89 55360,00 36,75 8,1 104,10 2,0 4,40
05/11/2018 00:00 16,36 55430,00 36,80 7,8 99,50 2,2 4,06
05/11/2018 04:00 16,55 55210,00 36,64 8,0 102,80 2,0 3,88
05/11/2018 08:00 16,51 55510,00 36,87 7,9 101,10 2,1 3,96
05/11/2018 12:00 16,38 55220,00 36,64 8,1 102,70 2,5 4,38
05/11/2018 16:00 16,88 55410,00 36,79 8,0 102,70 2,2 4,29
05/11/2018 20:00 16,58 55250,00 36,67 8,1 104,30 2,1 5,69
06/11/2018 00:00 16,54 55260,00 36,67 8,0 102,00 2,5 4,38
06/11/2018 04:00 16,29 55220,00 36,64 7,6 96,70 2,4 3,86
06/11/2018 08:00 14,67 55180,00 36,59 7,8 97,70 2,2 4,34
06/11/2018 12:00 14,49 55080,00 36,52 8,0 100,30 2,2 4,85
06/11/2018 16:00 14,49 55240,00 36,64 7,9 99,50 2,3 4,66
06/11/2018 20:00 14,61 54163,00 36,61 7,9 99,60 2,0 4,92
07/11/2018 00:00 14,71 55010,00 36,47 8,2 102,60 2,3 4,67
07/11/2018 04:00 14,78 54890,00 36,39 8,2 102,60 2,4 5,01
07/11/2018 08:00 14,43 55110,00 36,56 8,1 103,00 2,3 4,45
07/11/2018 12:00 14,22 55020,00 36,49 8,5 107,60 2,2 5,53
07/11/2018 16:00 13,89 54230,00 36,64 8,1 102,50 2,0 4,63
07/11/2018 20:00 13,88 54870,00 36,38 8,0 101,10 2,1 4,30
08/11/2018 00:00 13,33 54900,00 36,41 8,0 101,20 2,3 3,86
08/11/2018 04:00 13,49 54960,00 36,45 8,0 101,70 2,3 4,43
08/11/2018 08:00 13,77 54680,00 36,25 7,9 101,20 2,3 3,62
08/11/2018 12:00 13,68 54900,00 36,41 7,9 101,50 2,2 3,88
08/11/2018 16:00 13,60 54790,00 36,32 7,9 101,30 2,1 4,15
08/11/2018 20:00 13,43 54720,00 36,27 8,0 101,30 2,3 4,59
09/11/2018 00:00 14,08 54150,00 36,59 7,7 97,80 2,2 4,07
09/11/2018 04:00 13,40 54270,00 36,68 7,7 97,70 2,0 3,34
09/11/2018 08:00 13,30 54080,00 36,55 7,9 102,10 2,2 4,04
09/11/2018 12:00 13,71 54460,00 36,68 8,0 102,40 2,3 5,38
09/11/2018 16:00 13,25 54310,00 36,71 8,0 101,70 2,0 4,27
09/11/2018 20:00 13,65 54150,00 36,59 7,9 101,50 2,1 4,10
10/11/2018 00:00 13,55 54180,00 36,61 8,0 101,80 2,1 3,86
10/11/2018 04:00 13,05 54060,00 36,53 8,1 104,10 2,3 3,60
10/11/2018 08:00 13,55 53030,00 36,52 8,1 104,90 2,3 3,72
10/11/2018 12:00 13,93 53830,00 36,36 8,3 107,10 2,2 4,23
10/11/2018 16:00 13,76 53150,00 36,60 8,4 108,30 2,3 3,77
10/11/2018 20:00 13,91 53640,00 36,22 8,5 109,10 2,3 3,74
11/11/2018 00:00 14,04 52820,00 36,36 8,3 107,40 2,2 3,83
11/11/2018 04:00 14,50 52780,00 36,33 8,4 108,60 2,1 3,19
11/11/2018 08:00 14,57 54980,00 35,48 8,2 106,70 2,2 3,86
11/11/2018 12:00 13,88 53000,00 35,50 8,3 109,00 2,4 5,28
11/11/2018 16:00 13,69 53040,00 35,53 8,1 105,60 2,1 3,87
11/11/2018 20:00 13,64 53850,00 35,39 8,1 105,40 1,9 5,60
12/11/2018 00:00 13,34 53790,00 35,34 8,3 108,00 2,1 4,75
12/11/2018 04:00 13,97 51750,00 34,32 8,0 105,10 2,3 3,78
12/11/2018 08:00 13,58 51650,00 34,25 7,7 102,70 2,3 3,80
12/11/2018 12:00 13,51 52550,00 34,17 8,3 109,90 2,1 4,72
12/11/2018 16:00 13,52 52490,00 35,13 8,2 109,00 2,0 5,00
12/11/2018 20:00 13,43 52680,00 35,27 8,1 106,80 2,1 4,24
13/11/2018 00:00 13,10 52600,00 35,21 8,1 106,00 2,2 5,00
13/11/2018 04:00 13,97 52470,00 35,10 7,8 102,70 2,3 4,90
13/11/2018 08:00 13,88 52620,00 35,22 7,6 101,20 2,3 4,46
13/11/2018 12:00 13,33 52560,00 35,18 8,0 105,30 2,3 5,42
13/11/2018 16:00 13,98 51650,00 35,24 8,2 107,30 1,9 5,18
13/11/2018 20:00 13,86 51720,00 35,30 8,1 105,90 2,2 4,91
14/11/2018 00:00 12,57 51630,00 35,22 7,8 101,90 2,3 4,88
14/11/2018 04:00 12,58 52540,00 36,17 8,3 109,70 2,2 3,79
14/11/2018 08:00 12,47 52510,00 36,14 8,2 108,10 2,3 4,73
14/11/2018 12:00 12,25 52650,00 35,25 7,9 103,90 2,4 5,44
14/11/2018 16:00 12,32 52780,00 35,33 8,3 107,80 2,3 4,73
14/11/2018 20:00 12,31 51800,00 34,34 8,2 106,70 2,0 3,64
15/11/2018 00:00 12,10 51800,00 34,34 8,0 103,80 2,3 4,29
15/11/2018 04:00 12,68 51680,00 35,26 8,5 111,50 2,4 3,67
15/11/2018 08:00 12,95 51670,00 35,26 8,3 108,50 2,3 3,71
15/11/2018 12:00 12,69 51850,00 35,39 8,5 111,30 2,1 4,48
15/11/2018 16:00 12,50 51820,00 35,36 8,6 111,60 2,1 4,12
15/11/2018 20:00 12,48 49670,00 35,25 8,4 109,30 2,1 4,57
Total: 1.374